Starlink 31928

operational
NORAD ID: 59897 Int'l Des: 2024-100 Owner: SPXS Country: US Constellation: starlink
LEOCIRCULAR

About Starlink 31928

Description loading...

Live Position

Loading 3D Globe...

Upcoming Passes

Altitude History

Altitude vs Time

uPlot chart will show altitude changes over time

Two-Line Element Set

1 59897U 24100N 25307.75591465 .00000079 00000-0 12395-4 0 9994
2 59897 43.0006 116.8887 0000923 263.4827 96.5920 15.27577991 81797
Epoch: Nov 3, 2025 • Age: 21 hours

Current Status

Altitude 494.1 km
Velocity 7.62 km/s
Sub-Earth Point -38.94°S, 72.94°E
Launch Date May 28, 2024
Age 1.4 years
Type internet

Technical Details

Classification Payload
Mass 730.00 kg
Dry Mass 700.00 kg
Total Mass 730.00 kg
Length 0.30 m
Diameter 4.10 m
Span 29.00 m
Shape Box + pan
Manufacturer SPXS
Bus Type Starlink V2M
Phase Status In Orbit
Owner/State SPXS/US

Large Constellations

Loading constellations...